Regional Weather Roundup
Issued by NWS

Home | Current Version | Previous Version | Text Only | Print | Product List | Glossary On
Versions: 1 2 3 4 5 6 7 8 9 10 11 12 13 14 15 16 17 18 19 20 21 22 23 24 25 26 27
000
ASUS44 KLIX 010311
RWRLA
LOUISIANA WEATHER ROUNDUP
NATIONAL WEATHER SERVICE NEW ORLEANS LA
1000 PM CDT TUE MAY 31 2016

NOTE: "FAIR" INDICATES FEW OR NO CLOUDS BELOW 12,000 FEET WITH NO
      SIGNIFICANT WEATHER AND/OR OBSTRUCTIONS TO VISIBILITY.
      SKY/WX - SKY CONDITION AND SIGNIFICANT WEATHER.
      TMP - AIR TEMPERATURE.    DP   - DEWPOINT TEMPERATURE.
      RH  - RELATIVE HUMIDITY.  PRES - PRESSURE.
      HX  - HEAT INDEX.         WCI  - WIND CHILL INDEX.

*  THESE STATIONS ARE NOT NWS OR FAA STATIONS AND ARE NOT UNDER
   NWS QUALITY CONTROL.

LAZ040-048-061>063-065-066-069-010400-
SOUTHEAST LOUISIANA

CITY           SKY/WX    TMP DP  RH WIND       PRES   REMARKS
N.O. AUDUBON     N/A     79  71  77 MISG        N/A
N.O. INTL ARPT CLOUDY    79  69  71 S8        29.94R
N.O. LAKEFRONT CLOUDY    81  69  67 SW8       29.94R
N.O. DOWNTOWN* FAIR      80  70  71 S3        29.95R
RESERVE*       FAIR      80  69  70 SW6       29.94R
SLIDELL        PTCLDY    76  70  82 CALM      29.94R
BATON ROUGE    CLOUDY    72  68  87 CALM      29.94R
BOOTHVILLE     CLEAR     79  69  71 S7        29.96R
BELLE CHASSE   MOCLDY    75  69  81 SW6       29.94R
BOGALUSA*      FAIR      79  70  72 S3        29.95R
GALLIANO*      PTCLDY    73  69  87 CALM      29.95R
NEW ROADS*     FAIR      74  68  80 CALM      29.94R
GONZALES*      FAIR      77  69  77 CALM      29.93R
HAMMOND*       CLOUDY    79  70  73 W5        29.94R
HOUMA*         CLEAR     76  71  83 S3        29.94R
PORT FOURCHON* PTCLDY    81  70  69 SW8       29.95R

$$

LAZ041-044-053-054-010400-
SOUTHWEST LOUISIANA

CITY           SKY/WX    TMP DP  RH WIND       PRES   REMARKS
LAKE CHARLES   MOCLDY    77  72  84 CALM      29.92R
LAFAYETTE      CLEAR     77  71  82 SW5       29.93R
PATTERSON      CLEAR     74  72  93 CALM      29.96R
SALT POINT       N/A     78  73  84 CALM      29.93R
NEW IBERIA     CLEAR     77  72  84 CALM      29.94R
CHENAULT AIRPK CLEAR    N/A N/A N/A CALM        N/A

$$

LAZ027-028-010400-
CENTRAL LOUISIANA

CITY           SKY/WX    TMP DP  RH WIND       PRES   REMARKS
FORT POLK      CLOUDY    76  71  83 S6        29.92R
ALEXANDRIA INT CLOUDY    78  71  79 S6        29.91R
ALEXANDRIA     CLOUDY    75  72  90 CALM      29.93R

$$

LAZ001-002-010400-
NORTHWEST LOUISIANA

CITY           SKY/WX    TMP DP  RH WIND       PRES   REMARKS
SHREVEPORT     CLOUDY    73  66  78 NW9       29.92R
BARKSDALE AFB  CLOUDY    73  65  75 N8        29.92R
DTN SHREVEPORT CLOUDY    73  65  75 NW6       29.92R

$$

LAZ014-016-010400-
NORTHEAST LOUISIANA

CITY           SKY/WX    TMP DP  RH WIND       PRES   REMARKS
MONROE         PTCLDY    76  73  91 CALM      29.91R
TALLULAH       PTCLDY    76  65  68 E3        29.92R

$$





USA.gov is the U.S. government's official web portal to all federal, state and local government web resources and services.